A/2021 G2

Japanese version
Home page
Updated on June 27, 2021

---------------------------------------------------------------------

* Profile

Discovery Date April 11, 2021
Magnitude 19.3 mag
Discoverer Asteroid Terrestrial-Impact Last Alert System (ATLAS) search program

* Pictures

* Orbital Elements

Epoch 2024 Sept. 7.0 TT = JDT 2460560.5                                         
T 2024 Sept. 8.99442 TT                                 Rudenko                 
q   4.9815921            (2000.0)            P               Q                  
z  -0.0001177      Peri.  343.27958     -0.84713886     +0.20052520             
 +/-0.0000690      Node   221.09416     -0.36000190     -0.89772969             
e   1.0005866      Incl.   48.47307     -0.39083806     +0.39226401             
H    8.5                                                                        
From 85 observations 2020 Nov. 3-2021 June 1, mean residual 0".5.               

* Finding Charts

* Magnitudes Graph

        H = 8.5  G = 0.15

---------------------------------------------------------------------

The orbital elements are published on M.P.E.C. 2021-M79.
The charts are made with StellaNavigator Ver.10 (AstroArts).
The magnitudes graphs are made with Comet for Windows.

---------------------------------------------------------------------

Copyright(C) Seiichi Yoshida (comet@aerith.net). All rights reserved.